151P/Helin (2015)

Japanese version
Home page
Updated on June 11, 2016

---------------------------------------------------------------------

* Profile

* Pictures

* Orbital Elements

Epoch 2015 Oct. 25.0 TT = JDT 2457320.5
T 2015 Oct. 8.07678 TT                                  MPCW
q   2.4737620            (2000.0)            P               Q
n   0.07088933     Peri.  216.26624     +0.99874632     +0.00845739
a   5.7820538      Node   143.15525     +0.00862402     +0.94181636
e   0.5721655      Incl.    4.71955     -0.04930943     +0.33602147
P  13.9
From 146 observations 1987 Sept. 17-2015 Aug. 22, mean residual 0".6.

* Finding Charts

* Magnitudes Graph

        m1 = -8.8 + 5 log d + 62.5 log r(t - 28)

---------------------------------------------------------------------

The orbital elements are published on M.P.E.C. 2015-Q71.
The charts are made with StellaNavigator Ver.8 (AstroArts).
The magnitudes graphs are made with Comet for Windows.

---------------------------------------------------------------------

Copyright(C) Seiichi Yoshida (comet@aerith.net). All rights reserved.